[[{"header":{"parameterUnit":"m.s-1","parameterCategory":2,"la1":30.2992,"la2":30.254,"lo1":-89.0895,"lo2":-89.0443,"dy":0.0025,"dx":0.0025,"nx":19,"ny":19,"refTime":"2026-03-10T09:00:00:Z","depth":"0","parameterNumber":2,"parameterNumberName":"U-component_of_CURRENTS"},"data":[0,0,0,-0.0779,-0.078,-0.0844,-0.0844,-0.0829,-0.0828,0,0,0,0,0,0,0,0,0,0,0,-0.075,-0.075,-0.0779,-0.078,-0.0844,-0.0844,-0.0829,-0.0828,0,0,0,0,0,0,0,0,0,0,0,-0.075,-0.075,-0.0751,-0.0781,-0.0844,-0.0844,-0.0829,-0.0803,0,0,0,0,0,0,0,0,0,0,-0.0753,-0.0734,-0.075,-0.0751,-0.0781,-0.0844,-0.0844,-0.0803,-0.0805,-0.0775,0,-0.0789,0,-0.0812,-0.0826,-0.0826,0,0,0,-0.0773,-0.0733,-0.0761,-0.0751,-0.0782,-0.0844,-0.0813,-0.0805,-0.0806,-0.0777,-0.0789,-0.0789,-0.0812,-0.0825,-0.0825,-0.0926,-0.0927,0,0,-0.0769,-0.0747,-0.076,-0.0762,-0.0802,-0.0811,-0.0815,-0.0807,-0.0801,-0.0789,-0.079,-0.0812,-0.0825,-0.0825,-0.0925,-0.0926,0,0,0,-0.0764,-0.0745,-0.0775,-0.0762,-0.0784,-0.0813,-0.0818,-0.0801,-0.0815,-0.079,-0.0812,-0.0825,-0.0825,-0.0923,-0.0925,-0.1014,0,0,0,-0.0762,-0.0743,-0.0773,-0.0759,-0.0785,-0.0805,-0.0812,-0.0815,-0.0816,-0.0812,-0.0825,-0.0824,-0.0922,-0.0924,-0.1008,-0.1048,0,0,0,-0.0746,-0.0741,-0.0753,-0.0758,-0.0791,-0.0806,-0.0819,-0.0816,-0.0828,-0.0826,-0.0824,-0.0921,-0.0924,-0.1003,-0.104,-0.1082,0,0,0,-0.0716,-0.0745,-0.0752,-0.0789,-0.0791,-0.0862,-0.082,-0.0846,-0.0848,-0.0825,-0.0922,-0.0925,-0.1001,-0.1035,-0.1078,-0.0986,-0.1001,0,0,-0.0741,-0.0747,-0.0773,-0.0782,-0.0851,-0.0852,-0.0945,-0.0917,-0.0894,-0.0912,-0.0915,-0.101,-0.104,-0.1081,-0.1177,-0.1186,0,0,0,-0.0774,-0.0793,-0.0815,-0.0854,-0.0899,-0.0976,-0.0968,-0.0999,-0.1042,-0.0914,-0.1053,-0.107,-0.1092,-0.1028,-0.1037,-0.0956,-0.094,-0.094,-0.094,-0.0782,-0.0817,-0.0866,-0.0922,-0.0977,-0.1058,-0.1133,-0.1181,-0.1116,-0.1176,-0.1173,-0.131,-0.1247,-0.1252,-0.1171,-0.1208,-0.1209,-0.1209,-0.1209,-0.0827,-0.0848,-0.0913,-0.0966,-0.1054,-0.1126,-0.1281,-0.1293,-0.1394,-0.133,-0.1346,-0.1165,-0.1265,-0.1176,-0.1216,-0.1215,-0.1214,-0.1213,-0.1213,-0.0817,-0.0829,-0.0869,-0.0955,-0.1054,-0.116,-0.1311,-0.1409,-0.1459,-0.1513,-0.1387,-0.1383,-0.1273,-0.1487,-0.1488,-0.1488,-0.1489,-0.1489,-0.1489,-0.0769,-0.0819,-0.0841,-0.094,-0.098,-0.1107,-0.1315,-0.1407,-0.1479,-0.149,-0.1489,-0.1323,-0.1394,-0.1346,-0.1495,-0.1494,-0.1493,-0.1493,-0.1492,-0.0723,-0.0741,-0.0776,-0.0811,-0.0929,-0.1019,-0.1234,-0.1384,-0.1485,-0.1494,-0.1373,-0.1477,-0.1433,-0.1424,-0.1377,-0.1526,-0.1526,-0.1526,-0.1526,-0.0661,-0.0686,-0.0698,-0.0742,-0.0842,-0.0978,-0.1087,-0.1222,-0.1306,-0.1294,-0.1345,-0.1252,-0.1254,-0.1193,-0.119,-0.1137,-0.1221,-0.1221,-0.122,-0.061,-0.0625,-0.0605,-0.0668,-0.0774,-0.0905,-0.0947,-0.1007,-0.1117,-0.1204,-0.1261,-0.1274,-0.1132,-0.1141,-0.1037,-0.1038,-0.0947,0,0]},{"header":{"parameterUnit":"m.s-1","parameterCategory":2,"la1":30.2992,"la2":30.254,"lo1":-89.0895,"lo2":-89.0443,"dy":0.0025,"dx":0.0025,"nx":19,"ny":19,"refTime":"2026-03-10T09:00:00:Z","depth":"0","parameterNumber":3,"parameterNumberName":"V-component_of_CURRENTS"},"data":[0,0,0,0.039,0.0392,0.0519,0.052,0.0622,0.0623,0,0,0,0,0,0,0,0,0,0,0,0.034,0.0341,0.0389,0.0392,0.0519,0.052,0.0622,0.0623,0,0,0,0,0,0,0,0,0,0,0,0.034,0.0341,0.0341,0.0392,0.0519,0.052,0.0622,0.0545,0,0,0,0,0,0,0,0,0,0,0.0431,0.0375,0.0341,0.0341,0.0393,0.0519,0.052,0.0542,0.055,0.0542,0,0.055,0,0.0582,0.0627,0.0627,0,0,0,0.0409,0.0368,0.0413,0.0341,0.0394,0.0519,0.0467,0.0547,0.0556,0.0552,0.0552,0.0557,0.0584,0.0627,0.0628,0.064,0.0639,0,0,0.0402,0.0357,0.0407,0.0418,0.041,0.0462,0.047,0.0553,0.0546,0.0552,0.0559,0.0586,0.0628,0.0628,0.064,0.064,0,0,0,0.037,0.0351,0.0396,0.0413,0.0437,0.0466,0.0475,0.0543,0.0561,0.0561,0.0587,0.0628,0.0629,0.064,0.064,0.0554,0,0,0,0.0367,0.0333,0.0392,0.0366,0.0436,0.0496,0.0462,0.0555,0.0566,0.0586,0.0628,0.0629,0.0641,0.064,0.0557,0.0508,0,0,0,0.0338,0.033,0.0342,0.0364,0.0414,0.0496,0.052,0.0559,0.058,0.0627,0.063,0.0641,0.064,0.056,0.0514,0.0474,0,0,0,0.0293,0.0284,0.034,0.034,0.0412,0.0465,0.052,0.0566,0.0602,0.0628,0.0641,0.064,0.056,0.0517,0.0477,0.0496,0.0483,0,0,0.0256,0.0278,0.0281,0.0335,0.0371,0.045,0.0461,0.0534,0.0587,0.0613,0.0614,0.0556,0.0514,0.0474,0.0454,0.0441,0,0,0,0.0254,0.0254,0.0275,0.031,0.0371,0.0401,0.0479,0.0506,0.0548,0.0603,0.0565,0.0542,0.0519,0.0538,0.0528,0.0689,0.0636,0.0637,0.0637,0.0166,0.0212,0.0211,0.0267,0.0294,0.0368,0.0389,0.0436,0.0495,0.0498,0.0478,0.0398,0.0418,0.041,0.0576,0.0493,0.0493,0.0493,0.0492,0.0106,0.0109,0.0149,0.0161,0.0209,0.0223,0.0285,0.0329,0.0346,0.0409,0.0392,0.0455,0.0394,0.0575,0.0487,0.0488,0.0489,0.0489,0.049,0.0055,0.0057,0.0065,0.0069,0.0076,0.013,0.0111,0.0179,0.0255,0.0243,0.0287,0.029,0.0443,0.0239,0.0238,0.0238,0.0238,0.0237,0.0237,-0.0001,0.0005,-0.0027,-0.0022,-0.003,-0.0033,0.0012,0.0025,0.0101,0.0188,0.0189,0.0439,0.0321,0.0324,0.0231,0.0232,0.0233,0.0233,0.0234,-0.005,-0.0056,-0.0109,-0.0133,-0.0165,-0.0199,-0.0161,-0.0102,-0.0058,-0.0017,0.0343,0.0173,0.0203,0.0213,0.0215,0.0098,0.0098,0.0098,0.0098,-0.0087,-0.0093,-0.0177,-0.0239,-0.0293,-0.0282,-0.0301,-0.0169,0.013,0.0327,0.0378,0.047,0.0468,0.052,0.0523,0.0535,0.0503,0.0503,0.0504,-0.012,-0.0145,-0.0215,-0.028,-0.0347,-0.0368,-0.0356,-0.0146,0.0337,0.0538,0.0596,0.0578,0.0733,0.0718,0.082,0.0811,0.0837,0,0]}],[{"header":{"parameterUnit":"m.s-1","parameterCategory":2,"la1":30.2992,"la2":30.254,"lo1":-89.0895,"lo2":-89.0443,"dy":0.0025,"dx":0.0025,"nx":19,"ny":19,"refTime":"2026-03-10T09:00:00:Z","depth":"2","parameterNumber":2,"parameterNumberName":"U-component_of_CURRENTS"},"data":[0,0,0,-0.0932,-0.0933,-0.0929,-0.0928,-0.0867,-0.0866,0,0,0,0,0,0,0,0,0,0,0,-0.0915,-0.0914,-0.0932,-0.0933,-0.0929,-0.0928,-0.0867,-0.0866,0,0,0,0,0,0,0,0,0,0,0,-0.0915,-0.0915,-0.0914,-0.0933,-0.0929,-0.0928,-0.0867,-0.0881,0,0,0,0,0,0,0,0,0,0,-0.089,-0.0881,-0.0915,-0.0914,-0.0933,-0.0929,-0.0928,-0.0882,-0.088,-0.0857,0,-0.0853,0,-0.0871,-0.0862,-0.0862,0,0,0,-0.0918,-0.0882,-0.0894,-0.0914,-0.0933,-0.0929,-0.0926,-0.0881,-0.0879,-0.0854,-0.0852,-0.0851,-0.087,-0.0862,-0.0862,-0.0925,-0.0926,0,0,-0.0918,-0.0901,-0.0895,-0.0892,-0.0926,-0.0927,-0.0926,-0.088,-0.0866,-0.0852,-0.085,-0.0869,-0.0862,-0.0861,-0.0924,-0.0925,0,0,0,-0.0929,-0.0901,-0.0914,-0.0894,-0.0905,-0.0927,-0.0927,-0.0868,-0.0876,-0.085,-0.0869,-0.0861,-0.086,-0.0923,-0.0924,-0.102,0,0,0,-0.0928,-0.0909,-0.0914,-0.0902,-0.0906,-0.0894,-0.0915,-0.0878,-0.0875,-0.0869,-0.0861,-0.086,-0.0921,-0.0924,-0.1015,-0.1057,0,0,0,-0.0916,-0.0908,-0.0908,-0.0902,-0.091,-0.0895,-0.09,-0.0878,-0.0887,-0.0862,-0.086,-0.092,-0.0923,-0.101,-0.1049,-0.1068,0,0,0,-0.0897,-0.0907,-0.0907,-0.0925,-0.0911,-0.0946,-0.09,-0.09,-0.0883,-0.0861,-0.0922,-0.0924,-0.1008,-0.1044,-0.1064,-0.0962,-0.0974,0,0,-0.0909,-0.0907,-0.0924,-0.0926,-0.0979,-0.0946,-0.101,-0.0958,-0.0923,-0.0926,-0.0928,-0.1017,-0.1049,-0.1067,-0.1121,-0.1127,0,0,0,-0.0929,-0.0939,-0.0954,-0.0981,-0.1003,-0.1046,-0.1008,-0.1031,-0.105,-0.093,-0.1046,-0.1063,-0.1071,-0.1002,-0.1009,-0.0937,-0.0937,-0.0937,-0.0936,-0.0925,-0.0959,-0.0998,-0.1039,-0.1064,-0.1113,-0.1161,-0.1187,-0.1117,-0.1167,-0.1163,-0.1274,-0.1206,-0.1208,-0.1187,-0.1187,-0.1188,-0.1188,-0.1188,-0.0968,-0.0992,-0.1043,-0.1085,-0.1144,-0.1182,-0.1294,-0.1298,-0.1369,-0.1312,-0.1313,-0.1135,-0.122,-0.1196,-0.1195,-0.1194,-0.1193,-0.1192,-0.1192,-0.0968,-0.0983,-0.1011,-0.1083,-0.1154,-0.1218,-0.1335,-0.1414,-0.1437,-0.1478,-0.1328,-0.1324,-0.1297,-0.1439,-0.144,-0.144,-0.144,-0.144,-0.1441,-0.094,-0.0979,-0.0999,-0.1074,-0.1103,-0.1198,-0.1347,-0.1405,-0.1435,-0.1431,-0.1429,-0.1358,-0.135,-0.1311,-0.1445,-0.1445,-0.1444,-0.1443,-0.1443,-0.0919,-0.0923,-0.0962,-0.0989,-0.1085,-0.1143,-0.1282,-0.1343,-0.1412,-0.1394,-0.1398,-0.1397,-0.1345,-0.1337,-0.1299,-0.1422,-0.1422,-0.1422,-0.1422,-0.088,-0.0896,-0.0921,-0.0964,-0.1055,-0.1126,-0.1125,-0.115,-0.1234,-0.1248,-0.1256,-0.1178,-0.1182,-0.1116,-0.1113,-0.1068,-0.1131,-0.113,-0.113,-0.0855,-0.087,-0.0873,-0.0926,-0.1025,-0.1075,-0.0984,-0.0891,-0.097,-0.1118,-0.1205,-0.1402,-0.1304,-0.1305,-0.1211,-0.1205,-0.1135,0,0]},{"header":{"parameterUnit":"m.s-1","parameterCategory":2,"la1":30.2992,"la2":30.254,"lo1":-89.0895,"lo2":-89.0443,"dy":0.0025,"dx":0.0025,"nx":19,"ny":19,"refTime":"2026-03-10T09:00:00:Z","depth":"2","parameterNumber":3,"parameterNumberName":"V-component_of_CURRENTS"},"data":[0,0,0,-0.0091,-0.0087,0.0121,0.0122,0.0295,0.0295,0,0,0,0,0,0,0,0,0,0,0,-0.0158,-0.0157,-0.0091,-0.0087,0.0121,0.0122,0.0294,0.0296,0,0,0,0,0,0,0,0,0,0,0,-0.0159,-0.0158,-0.0156,-0.0086,0.012,0.0122,0.0294,0.0167,0,0,0,0,0,0,0,0,0,0,-0.0021,-0.0091,-0.0158,-0.0156,-0.0085,0.012,0.0122,0.0162,0.0174,0.0166,0,0.0192,0,0.0233,0.0303,0.0303,0,0,0,-0.0062,-0.0102,-0.0039,-0.0156,-0.0083,0.012,0.0034,0.017,0.0184,0.0182,0.0194,0.0202,0.0236,0.0303,0.0304,0.0379,0.0379,0,0,-0.0073,-0.0125,-0.0049,-0.0031,-0.004,0.0027,0.004,0.018,0.0183,0.0195,0.0206,0.0238,0.0304,0.0305,0.0379,0.0379,0,0,0,-0.0123,-0.0133,-0.0071,-0.0039,-0.0001,0.0033,0.0048,0.0177,0.02,0.0208,0.024,0.0305,0.0306,0.0379,0.0379,0.0301,0,0,0,-0.0129,-0.0163,-0.0077,-0.0105,-0.0004,0.0099,0.0041,0.0191,0.0208,0.024,0.0305,0.0307,0.0379,0.0379,0.0303,0.0255,0,0,0,-0.0166,-0.0167,-0.0144,-0.0109,-0.0029,0.0099,0.0131,0.0197,0.0225,0.0303,0.0307,0.0379,0.0379,0.0305,0.0259,0.0224,0,0,0,-0.0222,-0.0204,-0.0146,-0.0122,-0.0031,0.0082,0.0131,0.0225,0.029,0.0305,0.0379,0.0379,0.0305,0.0262,0.0226,0.0241,0.023,0,0,-0.0233,-0.0207,-0.0193,-0.0137,-0.0072,0.0056,0.0124,0.0228,0.0284,0.033,0.0334,0.0302,0.026,0.0224,0.0244,0.0233,0,0,0,-0.0219,-0.0208,-0.0176,-0.0129,-0.003,0.0066,0.0188,0.0222,0.0287,0.0319,0.0325,0.0301,0.0281,0.0297,0.0288,0.0379,0.0379,0.0379,0.0379,-0.0286,-0.0242,-0.022,-0.0137,-0.0061,0.0072,0.0132,0.0201,0.0264,0.0275,0.0255,0.0197,0.0215,0.0208,0.0284,0.0283,0.0283,0.0283,0.0283,-0.0333,-0.0331,-0.0265,-0.0225,-0.0121,-0.0043,0.0074,0.012,0.015,0.0209,0.0194,0.0236,0.0194,0.0277,0.0278,0.0279,0.0279,0.028,0.028,-0.04,-0.0394,-0.0363,-0.0321,-0.0248,-0.0118,-0.01,-0.0014,0.0065,0.0057,0.0098,0.01,0.0131,0.0057,0.0056,0.0056,0.0056,0.0055,0.0055,-0.0491,-0.0458,-0.0468,-0.0408,-0.0374,-0.0315,-0.0202,-0.0168,-0.0072,0.0009,0.001,0.0121,0.0129,0.0119,0.005,0.0051,0.0051,0.0052,0.0052,-0.0567,-0.0558,-0.0591,-0.0578,-0.0527,-0.0506,-0.0391,-0.0272,-0.022,-0.017,-0.0008,-0.0005,0.002,0.0029,0.0019,-0.0073,-0.0073,-0.0073,-0.0073,-0.0634,-0.0628,-0.0696,-0.071,-0.0704,-0.06,-0.0544,-0.036,-0.018,-0.0076,-0.0076,-0.0017,-0.0012,0.0015,0.0025,0.0016,-0.0077,-0.0077,-0.0077,-0.0688,-0.0707,-0.0777,-0.0791,-0.0777,-0.0706,-0.0606,-0.0345,-0.0095,-0.0077,-0.008,-0.0073,0.0019,0.0025,0.0075,0.0087,0.0077,0,0]}],[{"header":{"parameterUnit":"m.s-1","parameterCategory":2,"la1":30.2992,"la2":30.254,"lo1":-89.0895,"lo2":-89.0443,"dy":0.0025,"dx":0.0025,"nx":19,"ny":19,"refTime":"2026-03-10T09:00:00:Z","depth":"4","parameterNumber":2,"parameterNumberName":"U-component_of_CURRENTS"},"data":[0,0,0,-0.0817,-0.0818,-0.0878,-0.0878,-0.0918,-0.0918,0,0,0,0,0,0,0,0,0,0,0,-0.0782,-0.0782,-0.0817,-0.0818,-0.0878,-0.0878,-0.0918,-0.0918,0,0,0,0,0,0,0,0,0,0,0,-0.0782,-0.0782,-0.0782,-0.0819,-0.0878,-0.0878,-0.0918,-0.0881,0,0,0,0,0,0,0,0,0,0,-0.0827,-0.0819,-0.0782,-0.0782,-0.0819,-0.0878,-0.0878,-0.088,-0.0883,-0.0882,0,-0.0885,0,-0.091,-0.092,-0.0921,0,0,0,-0.0815,-0.0816,-0.0818,-0.0782,-0.082,-0.0878,-0.085,-0.0882,-0.0886,-0.0887,-0.0886,-0.0888,-0.0911,-0.0921,-0.0921,-0.0978,-0.0979,0,0,-0.0811,-0.0808,-0.0815,-0.082,-0.0826,-0.0848,-0.0852,-0.0885,-0.0893,-0.0886,-0.0889,-0.0911,-0.0921,-0.0921,-0.0978,-0.0978,0,0,0,-0.0804,-0.0806,-0.0808,-0.0818,-0.0836,-0.085,-0.0854,-0.0891,-0.0888,-0.089,-0.0912,-0.0921,-0.0922,-0.0977,-0.0978,-0.0979,0,0,0,-0.0802,-0.0802,-0.0806,-0.0807,-0.0835,-0.0875,-0.086,-0.0885,-0.089,-0.0911,-0.0921,-0.0922,-0.0977,-0.0978,-0.0978,-0.1001,0,0,0,-0.0781,-0.0801,-0.0801,-0.0807,-0.0834,-0.0875,-0.0874,-0.0887,-0.0904,-0.0921,-0.0922,-0.0977,-0.0978,-0.0977,-0.0999,-0.107,0,0,0,-0.0784,-0.0786,-0.0801,-0.0823,-0.0834,-0.0874,-0.0874,-0.0915,-0.0933,-0.0921,-0.0977,-0.0978,-0.0977,-0.0998,-0.1067,-0.0922,0,0,0,-0.0786,-0.0787,-0.0801,-0.0816,-0.0854,-0.0866,-0.0907,-0.0931,-0.0944,-0.0962,-0.0964,-0.0978,-0.0999,-0.1069,-0.0976,0,0,0,0,-0.0802,-0.0806,-0.0822,-0.0853,-0.0883,-0.0914,-0.094,-0.0944,-0.0973,-0.096,-0.0997,-0.1011,-0.1055,-0.0964,-0.0982,-0.0982,-0.0982,-0.0982,-0.0982,-0.0786,-0.0815,-0.0844,-0.0878,-0.0908,-0.0951,-0.0974,-0.0989,-0.0987,-0.1004,-0.1024,-0.1097,-0.0998,-0.1026,-0.1026,-0.1026,-0.1026,-0.1026,-0.1026,-0.0781,-0.0799,-0.0851,-0.0889,-0.0934,-0.0971,-0.1007,-0.1015,-0.107,-0.1038,-0.1081,-0.0984,-0.1027,-0.1027,-0.1027,-0.1027,-0.1027,-0.1027,-0.1026,-0.0763,-0.0775,-0.0815,-0.0877,-0.094,-0.0989,-0.1031,-0.1062,-0.11,-0.1135,-0.1084,-0.1129,-0.1118,-0.1171,-0.1171,-0.1172,-0.1172,-0.1172,-0.1173,-0.072,-0.0759,-0.0789,-0.0865,-0.0912,-0.0968,-0.1059,-0.1097,-0.1156,-0.1101,-0.1164,-0.1147,-0.1142,-0.1129,-0.1179,-0.1178,-0.1177,-0.1176,-0.1176,-0.0682,-0.0707,-0.0733,-0.0777,-0.0872,-0.0907,-0.102,-0.1075,-0.1135,-0.1137,-0.1091,-0.1094,-0.1097,-0.1095,-0.108,-0.1117,-0.1115,-0.1114,0,-0.0647,-0.0663,-0.0679,-0.0719,-0.0771,-0.0857,-0.0893,-0.0966,-0.1032,-0.099,-0.114,-0.1086,-0.1087,-0.1087,-0.1082,-0.1062,0,0,0,-0.0615,-0.0619,-0.0614,-0.0659,-0.0719,-0.0786,-0.089,-0.0893,-0.1008,-0.1025,-0.1072,-0.1083,-0.1134,-0.1198,-0.1211,-0.1205,-0.1186,0,0]},{"header":{"parameterUnit":"m.s-1","parameterCategory":2,"la1":30.2992,"la2":30.254,"lo1":-89.0895,"lo2":-89.0443,"dy":0.0025,"dx":0.0025,"nx":19,"ny":19,"refTime":"2026-03-10T09:00:00:Z","depth":"4","parameterNumber":3,"parameterNumberName":"V-component_of_CURRENTS"},"data":[0,0,0,-0.0201,-0.0201,-0.0211,-0.0211,-0.0191,-0.0191,0,0,0,0,0,0,0,0,0,0,0,-0.0192,-0.0192,-0.0201,-0.0201,-0.0211,-0.0211,-0.0191,-0.0191,0,0,0,0,0,0,0,0,0,0,0,-0.0192,-0.0192,-0.0192,-0.0201,-0.0211,-0.0211,-0.0191,-0.0192,0,0,0,0,0,0,0,0,0,0,-0.0186,-0.019,-0.0192,-0.0192,-0.0201,-0.0211,-0.0211,-0.0192,-0.0192,-0.0176,0,-0.0174,0,-0.0182,-0.0188,-0.0188,0,0,0,-0.0202,-0.0191,-0.0186,-0.0192,-0.0201,-0.0211,-0.0207,-0.0192,-0.0192,-0.0176,-0.0174,-0.0173,-0.0182,-0.0188,-0.0188,-0.0151,-0.0151,0,0,-0.0201,-0.0201,-0.0186,-0.0185,-0.0197,-0.0206,-0.0207,-0.0192,-0.0192,-0.0174,-0.0173,-0.0182,-0.0188,-0.0188,-0.0151,-0.0151,0,0,0,-0.0199,-0.0201,-0.0197,-0.0186,-0.0191,-0.0207,-0.0207,-0.0193,-0.019,-0.0173,-0.0182,-0.0188,-0.0187,-0.0151,-0.0151,-0.0173,0,0,0,-0.0199,-0.0199,-0.0197,-0.0198,-0.0191,-0.0199,-0.0209,-0.0191,-0.019,-0.0182,-0.0188,-0.0187,-0.0151,-0.0151,-0.0172,-0.0188,0,0,0,-0.0192,-0.0199,-0.0197,-0.0198,-0.0202,-0.02,-0.0196,-0.0191,-0.0194,-0.0188,-0.0187,-0.0152,-0.0151,-0.0172,-0.0187,-0.0149,0,0,0,-0.0197,-0.0197,-0.0197,-0.0202,-0.0202,-0.0197,-0.0196,-0.0195,-0.019,-0.0188,-0.0151,-0.0151,-0.0172,-0.0187,-0.0149,-0.0184,0,0,0,-0.0201,-0.0198,-0.0202,-0.0201,-0.021,-0.0196,-0.0198,-0.0192,-0.0178,-0.0154,-0.0154,-0.0172,-0.0187,-0.0149,-0.0161,0,0,0,0,-0.0205,-0.0212,-0.0212,-0.0219,-0.0209,-0.0209,-0.0196,-0.0188,-0.0176,-0.0173,-0.0159,-0.0167,-0.0142,-0.0163,-0.0149,-0.0149,-0.0149,-0.0149,-0.0149,-0.0218,-0.0222,-0.0237,-0.0239,-0.0232,-0.0214,-0.0207,-0.0191,-0.0173,-0.0169,-0.0174,-0.0148,-0.0171,-0.0158,-0.0158,-0.0158,-0.0159,-0.0159,-0.0159,-0.0243,-0.0261,-0.0265,-0.0283,-0.0271,-0.0265,-0.023,-0.0215,-0.0178,-0.0181,-0.0155,-0.0173,-0.016,-0.016,-0.016,-0.016,-0.0159,-0.0159,-0.0159,-0.0265,-0.0277,-0.0291,-0.0321,-0.0329,-0.0307,-0.03,-0.0257,-0.0202,-0.0183,-0.0162,-0.0147,-0.0155,-0.0151,-0.0151,-0.0151,-0.0151,-0.0151,-0.0151,-0.0285,-0.03,-0.0339,-0.0364,-0.0384,-0.0384,-0.0336,-0.0298,-0.0222,-0.0187,-0.0174,-0.0145,-0.0145,-0.0153,-0.015,-0.015,-0.015,-0.015,-0.015,-0.0317,-0.033,-0.0383,-0.0414,-0.0456,-0.0444,-0.0404,-0.0305,-0.0247,-0.0184,-0.0173,-0.0172,-0.0159,-0.0159,-0.0167,-0.0168,-0.0168,-0.0168,0,-0.034,-0.035,-0.0428,-0.048,-0.0505,-0.0481,-0.042,-0.0352,-0.0246,-0.0248,-0.023,-0.0223,-0.0221,-0.0212,-0.0212,-0.0224,0,0,0,-0.0364,-0.0384,-0.0442,-0.0498,-0.0529,-0.045,-0.0399,-0.0365,-0.0272,-0.022,-0.0179,-0.0176,-0.0198,-0.0145,-0.0123,-0.0124,-0.0134,0,0]}]]